Time,TemperatureF,DewpointF,PressureIn,WindDirection,WindDirectionDegrees,WindSpeedMPH,WindSpeedGustMPH,Humidity,HourlyPrecipIn,Conditions,Clouds,dailyrainin,SoftwareType,DateUTC
2013-09-05 00:00:00,75.4,70.2,30.12,East,90,0.0,1.1,84,0.00,,---,0.00,VWS V14.01,2013-09-05 04:00:00,
2013-09-05 00:01:00,75.4,70.2,30.12,East,90,3.1,3.1,84,0.00,,---,0.00,VWS V14.01,2013-09-05 04:01:00,
2013-09-05 00:02:00,75.4,70.2,30.12,ESE,112,0.0,3.1,84,0.00,,---,0.00,VWS V14.01,2013-09-05 04:02:00,
2013-09-05 00:04:00,75.4,70.2,30.12,ESE,112,1.1,1.1,84,0.00,,---,0.00,VWS V14.01,2013-09-05 04:04:00,
2013-09-05 00:05:00,75.4,70.2,30.12,ESE,112,3.1,3.1,84,0.00,,---,0.00,VWS V14.01,2013-09-05 04:05:00,
2013-09-05 00:09:00,75.4,70.2,30.12,ENE,68,2.0,2.0,84,0.00,,---,0.00,VWS V14.01,2013-09-05 04:09:00,
2013-09-05 00:14:00,75.2,70.0,30.12,East,90,1.1,1.1,84,0.00,,---,0.00,VWS V14.01,2013-09-05 04:14:00,
2013-09-05 00:19:00,75.2,70.0,30.12,ESE,112,1.3,2.0,84,0.00,,---,0.00,VWS V14.01,2013-09-05 04:19:00,
2013-09-05 00:24:00,75.2,70.0,30.12,ENE,68,0.0,1.6,84,0.00,,---,0.00,VWS V14.01,2013-09-05 04:24:00,
2013-09-05 00:29:00,75.2,70.0,30.12,East,90,1.6,1.6,84,0.00,,---,0.00,VWS V14.01,2013-09-05 04:29:00,
2013-09-05 00:34:00,75.2,69.7,30.12,ESE,112,1.6,1.6,83,0.00,,---,0.00,VWS V14.01,2013-09-05 04:34:00,
2013-09-05 00:39:00,75.2,69.7,30.12,ESE,112,2.5,2.7,83,0.00,,---,0.00,VWS V14.01,2013-09-05 04:39:00,
2013-09-05 00:43:00,75.2,69.7,30.12,East,90,0.0,3.1,83,0.00,,---,0.00,VWS V14.01,2013-09-05 04:43:00,
2013-09-05 00:48:00,75.2,69.7,30.12,East,90,1.3,1.3,83,0.00,,---,0.00,VWS V14.01,2013-09-05 04:48:00,
2013-09-05 00:53:00,75.2,69.7,30.12,SE,135,0.0,2.5,83,0.00,,---,0.00,VWS V14.01,2013-09-05 04:53:00,
2013-09-05 00:58:00,75.2,69.7,30.12,NE,45,0.0,3.6,83,0.00,,---,0.00,VWS V14.01,2013-09-05 04:58:00,
2013-09-05 01:04:00,75.2,69.7,30.12,ENE,68,0.0,0.0,83,0.00,,---,0.00,VWS V14.01,2013-09-05 05:04:00,
2013-09-05 01:09:00,75.0,69.5,30.12,NE,45,2.7,2.7,83,0.00,,---,0.00,VWS V14.01,2013-09-05 05:09:00,
2013-09-05 01:14:00,75.0,69.9,30.12,East,90,1.1,1.6,84,0.00,,---,0.00,VWS V14.01,2013-09-05 05:14:00,
2013-09-05 01:19:00,75.0,69.9,30.12,ESE,112,0.0,0.0,84,0.00,,---,0.00,VWS V14.01,2013-09-05 05:19:00,
2013-09-05 01:25:00,75.0,69.9,30.12,ESE,112,1.1,1.1,84,0.00,,---,0.00,VWS V14.01,2013-09-05 05:25:00,
2013-09-05 01:30:00,75.0,69.9,30.12,SE,135,0.0,2.5,84,0.00,,---,0.00,VWS V14.01,2013-09-05 05:30:00,
2013-09-05 01:35:00,75.0,69.9,30.12,ESE,112,1.3,1.3,84,0.00,,---,0.00,VWS V14.01,2013-09-05 05:35:00,
2013-09-05 01:40:00,75.0,70.2,30.12,ESE,112,2.0,3.1,85,0.00,,---,0.00,VWS V14.01,2013-09-05 05:40:00,
2013-09-05 01:45:00,75.0,69.9,30.12,SE,135,0.0,3.4,84,0.00,,---,0.00,VWS V14.01,2013-09-05 05:45:00,
2013-09-05 01:50:00,75.0,70.2,30.12,ENE,68,2.0,3.6,85,0.00,,---,0.00,VWS V14.01,2013-09-05 05:50:00,
2013-09-05 01:55:00,75.0,70.2,30.12,East,90,0.0,0.0,85,0.00,,---,0.00,VWS V14.01,2013-09-05 05:55:00,
2013-09-05 02:00:00,75.0,69.9,30.12,ESE,112,2.2,2.5,84,0.00,,---,0.00,VWS V14.01,2013-09-05 06:00:00,
2013-09-05 02:05:00,75.0,69.9,30.12,NW,315,0.0,1.1,84,0.00,,---,0.00,VWS V14.01,2013-09-05 06:05:00,
2013-09-05 02:10:00,75.0,69.9,30.12,NE,45,1.6,1.6,84,0.00,,---,0.00,VWS V14.01,2013-09-05 06:10:00,
2013-09-05 02:15:00,75.0,69.9,30.12,SSW,202,0.0,0.0,84,0.00,,---,0.00,VWS V14.01,2013-09-05 06:15:00,
2013-09-05 02:20:00,75.0,69.5,30.12,NW,315,1.6,1.6,83,0.00,,---,0.00,VWS V14.01,2013-09-05 06:20:00,
2013-09-05 02:25:00,75.2,69.3,30.12,South,180,0.0,0.0,82,0.00,,---,0.00,VWS V14.01,2013-09-05 06:25:00,
2013-09-05 02:30:00,75.0,69.5,30.12,West,270,0.0,0.0,83,0.00,,---,0.00,VWS V14.01,2013-09-05 06:30:00,
2013-09-05 02:35:00,75.0,69.5,30.12,NNW,338,0.0,0.0,83,0.00,,---,0.00,VWS V14.01,2013-09-05 06:35:00,
2013-09-05 02:40:00,75.0,69.5,30.12,NNW,338,0.0,0.0,83,0.00,,---,0.00,VWS V14.01,2013-09-05 06:40:00,
2013-09-05 02:45:00,75.0,69.5,30.12,North,0,0.0,0.0,83,0.00,,---,0.00,VWS V14.01,2013-09-05 06:45:00,
2013-09-05 02:50:00,75.0,69.5,30.12,NNW,338,0.0,0.0,83,0.00,,---,0.00,VWS V14.01,2013-09-05 06:50:00,
2013-09-05 02:55:00,75.0,69.5,30.12,NW,315,0.0,0.0,83,0.00,,---,0.00,VWS V14.01,2013-09-05 06:55:00,
2013-09-05 03:00:00,74.8,69.3,30.12,North,0,0.0,0.0,83,0.00,,---,0.00,VWS V14.01,2013-09-05 07:00:00,
2013-09-05 03:05:00,74.8,69.3,30.12,NE,45,0.0,1.1,83,0.00,,---,0.00,VWS V14.01,2013-09-05 07:05:00,
2013-09-05 03:10:00,74.8,69.7,30.12,NE,45,0.0,0.0,84,0.00,,---,0.00,VWS V14.01,2013-09-05 07:10:00,
2013-09-05 03:15:00,74.8,69.7,30.12,NE,45,0.0,0.0,84,0.00,,---,0.00,VWS V14.01,2013-09-05 07:15:00,
2013-09-05 03:20:00,74.8,69.7,30.12,North,0,0.0,0.0,84,0.00,,---,0.00,VWS V14.01,2013-09-05 07:20:00,
2013-09-05 03:27:00,74.8,69.7,30.12,East,90,0.9,1.6,84,0.00,,---,0.00,VWS V14.01,2013-09-05 07:27:00,
2013-09-05 03:33:00,74.8,69.7,30.12,NE,45,0.0,1.3,84,0.00,,---,0.00,VWS V14.01,2013-09-05 07:33:00,
2013-09-05 03:38:00,74.8,69.7,30.12,WSW,248,0.0,0.0,84,0.00,,---,0.00,VWS V14.01,2013-09-05 07:38:00,
2013-09-05 03:43:00,74.8,69.7,30.12,ENE,68,0.0,0.0,84,0.00,,---,0.00,VWS V14.01,2013-09-05 07:43:00,
2013-09-05 03:48:00,74.8,69.7,30.12,North,0,0.0,0.0,84,0.00,,---,0.00,VWS V14.01,2013-09-05 07:48:00,
2013-09-05 03:55:00,74.8,69.7,30.12,North,0,0.0,0.0,84,0.00,,---,0.00,VWS V14.01,2013-09-05 07:55:00,
2013-09-05 04:00:00,74.8,69.7,30.12,ENE,68,0.0,0.0,84,0.00,,---,0.00,VWS V14.01,2013-09-05 08:00:00,
2013-09-05 04:05:00,74.8,69.7,30.12,NNE,22,0.0,0.0,84,0.00,,---,0.00,VWS V14.01,2013-09-05 08:05:00,
2013-09-05 04:11:00,74.8,69.7,30.12,NNE,22,0.0,0.0,84,0.00,,---,0.00,VWS V14.01,2013-09-05 08:11:00,
2013-09-05 04:16:00,74.8,69.7,30.12,SE,135,0.0,1.3,84,0.00,,---,0.00,VWS V14.01,2013-09-05 08:16:00,
2013-09-05 04:21:00,74.8,69.7,30.12,NNW,338,0.0,1.3,84,0.00,,---,0.00,VWS V14.01,2013-09-05 08:21:00,
2013-09-05 04:27:00,74.8,69.7,30.12,ESE,112,0.0,1.3,84,0.00,,---,0.00,VWS V14.01,2013-09-05 08:27:00,
2013-09-05 04:33:00,74.8,69.7,30.12,ESE,112,0.0,0.0,84,0.00,,---,0.00,VWS V14.01,2013-09-05 08:33:00,
2013-09-05 04:38:00,74.8,70.0,30.12,ESE,112,0.0,0.0,85,0.00,,---,0.00,VWS V14.01,2013-09-05 08:38:00,
2013-09-05 04:44:00,74.8,70.0,30.12,ESE,112,0.0,0.0,85,0.00,,---,0.00,VWS V14.01,2013-09-05 08:44:00,
2013-09-05 04:49:00,74.8,70.0,30.12,ESE,112,0.0,0.0,85,0.00,,---,0.00,VWS V14.01,2013-09-05 08:49:00,
2013-09-05 04:56:00,74.8,70.0,30.12,East,90,0.0,0.0,85,0.00,,---,0.00,VWS V14.01,2013-09-05 08:56:00,
2013-09-05 05:02:00,74.8,70.0,30.12,East,90,0.0,0.0,85,0.00,,---,0.00,VWS V14.01,2013-09-05 09:02:00,
2013-09-05 05:07:00,74.8,70.0,30.12,East,90,0.0,0.0,85,0.00,,---,0.00,VWS V14.01,2013-09-05 09:07:00,
2013-09-05 05:12:00,74.8,70.0,30.12,North,0,0.0,0.0,85,0.00,,---,0.00,VWS V14.01,2013-09-05 09:12:00,
2013-09-05 05:18:00,74.8,70.0,30.12,West,270,0.0,0.0,85,0.00,,---,0.00,VWS V14.01,2013-09-05 09:18:00,
2013-09-05 05:24:00,74.8,70.4,30.12,WSW,248,0.0,0.0,86,0.00,,---,0.00,VWS V14.01,2013-09-05 09:24:00,
2013-09-05 05:29:00,74.8,70.4,30.12,ESE,112,0.0,0.0,86,0.00,,---,0.00,VWS V14.01,2013-09-05 09:29:00,
2013-09-05 05:34:00,74.7,70.2,30.12,ESE,112,0.0,0.0,86,0.00,,---,0.00,VWS V14.01,2013-09-05 09:34:00,
2013-09-05 05:39:00,74.7,70.2,30.12,ESE,112,0.0,0.0,86,0.00,,---,0.00,VWS V14.01,2013-09-05 09:39:00,
2013-09-05 05:46:00,74.7,70.2,30.12,ESE,112,0.0,0.0,86,0.00,,---,0.00,VWS V14.01,2013-09-05 09:46:00,
2013-09-05 05:51:00,74.7,70.2,30.12,ESE,112,0.0,0.0,86,0.00,,---,0.00,VWS V14.01,2013-09-05 09:51:00,
2013-09-05 05:56:00,74.7,70.2,30.12,ESE,112,0.0,0.0,86,0.00,,---,0.00,VWS V14.01,2013-09-05 09:56:00,
2013-09-05 06:02:00,74.8,70.7,30.12,SW,225,0.0,0.0,87,0.00,,---,0.00,VWS V14.01,2013-09-05 10:02:00,
2013-09-05 06:08:00,74.8,70.7,30.12,ENE,68,0.0,0.0,87,0.00,,---,0.00,VWS V14.01,2013-09-05 10:08:00,
2013-09-05 06:13:00,74.8,70.7,30.12,NNE,22,0.0,0.0,87,0.00,,---,0.00,VWS V14.01,2013-09-05 10:13:00,
2013-09-05 06:19:00,75.0,70.9,30.12,SW,225,0.0,0.0,87,0.00,,---,0.00,VWS V14.01,2013-09-05 10:19:00,
2013-09-05 06:24:00,74.8,70.4,30.12,SSE,158,0.0,0.0,86,0.00,,---,0.00,VWS V14.01,2013-09-05 10:24:00,
2013-09-05 06:29:00,74.8,70.4,30.12,ESE,112,0.0,0.0,86,0.00,,---,0.00,VWS V14.01,2013-09-05 10:29:00,
2013-09-05 06:34:00,75.0,70.9,30.12,NE,45,0.0,0.0,87,0.00,,---,0.00,VWS V14.01,2013-09-05 10:34:00,
2013-09-05 06:40:00,75.0,70.6,30.12,ENE,68,0.0,2.0,86,0.00,,---,0.00,VWS V14.01,2013-09-05 10:40:00,
2013-09-05 06:46:00,74.8,70.4,30.12,NE,45,0.0,1.6,86,0.00,,---,0.00,VWS V14.01,2013-09-05 10:46:00,
2013-09-05 06:51:00,74.8,70.7,30.15,WNW,292,0.0,1.1,87,0.00,,---,0.00,VWS V14.01,2013-09-05 10:51:00,
2013-09-05 06:56:00,74.8,70.7,30.15,East,90,0.0,0.0,87,0.00,,---,0.00,VWS V14.01,2013-09-05 10:56:00,
2013-09-05 07:01:00,74.8,70.7,30.15,ESE,112,0.0,0.0,87,0.00,,---,0.00,VWS V14.01,2013-09-05 11:01:00,
2013-09-05 07:06:00,74.8,70.7,30.15,ENE,68,0.0,0.0,87,0.00,,---,0.00,VWS V14.01,2013-09-05 11:06:00,
2013-09-05 07:12:00,74.8,70.7,30.15,East,90,0.0,0.0,87,0.00,,---,0.00,VWS V14.01,2013-09-05 11:12:00,
2013-09-05 07:17:00,74.8,70.7,30.15,East,90,1.1,1.6,87,0.00,,---,0.00,VWS V14.01,2013-09-05 11:17:00,
2013-09-05 07:22:00,74.8,70.7,30.15,NE,45,0.0,0.0,87,0.00,,---,0.00,VWS V14.01,2013-09-05 11:22:00,
2013-09-05 07:27:00,74.8,70.7,30.15,NE,45,2.0,2.9,87,0.00,,---,0.00,VWS V14.01,2013-09-05 11:27:00,
2013-09-05 07:32:00,75.0,71.2,30.15,ESE,112,0.0,2.2,88,0.00,,---,0.00,VWS V14.01,2013-09-05 11:32:00,
2013-09-05 07:38:00,75.0,71.2,30.15,NNW,338,0.0,0.0,88,0.00,,---,0.00,VWS V14.01,2013-09-05 11:38:00,
2013-09-05 07:44:00,75.2,71.4,30.15,ENE,68,0.0,0.0,88,0.00,,---,0.00,VWS V14.01,2013-09-05 11:44:00,
2013-09-05 07:51:00,75.4,71.6,30.15,ENE,68,0.0,0.0,88,0.00,,---,0.00,VWS V14.01,2013-09-05 11:51:00,
2013-09-05 07:57:00,75.6,71.8,30.15,East,90,2.2,2.2,88,0.00,,---,0.00,VWS V14.01,2013-09-05 11:57:00,
2013-09-05 08:03:00,75.6,72.1,30.15,East,90,0.9,1.1,89,0.00,,---,0.00,VWS V14.01,2013-09-05 12:03:00,
2013-09-05 08:09:00,75.9,72.4,30.15,NNW,338,0.0,0.9,89,0.00,,---,0.00,VWS V14.01,2013-09-05 12:09:00,
2013-09-05 08:16:00,76.1,72.6,30.15,NNE,22,0.0,0.0,89,0.00,,---,0.00,VWS V14.01,2013-09-05 12:16:00,
2013-09-05 08:22:00,76.3,72.8,30.15,NNW,338,0.0,0.9,89,0.00,,---,0.00,VWS V14.01,2013-09-05 12:22:00,
2013-09-05 08:27:00,76.5,73.0,30.15,WNW,292,1.1,1.1,89,0.00,,---,0.00,VWS V14.01,2013-09-05 12:27:00,
2013-09-05 08:32:00,76.6,73.2,30.15,ENE,68,0.0,0.0,89,0.00,,---,0.00,VWS V14.01,2013-09-05 12:32:00,
2013-09-05 08:37:00,76.8,73.3,30.15,ENE,68,1.6,2.5,89,0.00,,---,0.00,VWS V14.01,2013-09-05 12:37:00,
2013-09-05 08:42:00,77.0,73.5,30.15,SSE,158,2.0,2.0,89,0.00,,---,0.00,VWS V14.01,2013-09-05 12:42:00,
2013-09-05 08:47:00,77.2,73.7,30.15,East,90,0.0,0.0,89,0.00,,---,0.00,VWS V14.01,2013-09-05 12:47:00,
2013-09-05 08:53:00,77.5,74.1,30.15,East,90,2.0,2.0,89,0.00,,---,0.00,VWS V14.01,2013-09-05 12:53:00,
2013-09-05 08:58:00,77.7,74.2,30.15,East,90,0.9,1.6,89,0.00,,---,0.00,VWS V14.01,2013-09-05 12:58:00,
2013-09-05 09:03:00,77.9,74.4,30.15,NNW,338,0.0,3.1,89,0.00,,---,0.00,VWS V14.01,2013-09-05 13:03:00,
2013-09-05 09:08:00,78.3,74.4,30.15,ENE,68,5.6,5.6,88,0.00,,---,0.00,VWS V14.01,2013-09-05 13:08:00,
2013-09-05 09:13:00,78.4,74.6,30.15,East,90,4.0,4.0,88,0.00,,---,0.00,VWS V14.01,2013-09-05 13:13:00,
2013-09-05 09:19:00,78.8,74.9,30.15,ENE,68,3.4,5.6,88,0.00,,---,0.00,VWS V14.01,2013-09-05 13:19:00,
2013-09-05 09:26:00,79.2,75.3,30.15,SE,135,2.2,2.5,88,0.00,,---,0.00,VWS V14.01,2013-09-05 13:26:00,
2013-09-05 09:31:00,79.5,75.7,30.15,East,90,2.7,2.7,88,0.00,,---,0.00,VWS V14.01,2013-09-05 13:31:00,
2013-09-05 09:36:00,79.9,75.7,30.15,NNE,22,2.7,2.7,87,0.00,,---,0.00,VWS V14.01,2013-09-05 13:36:00,
2013-09-05 09:41:00,80.4,76.2,30.15,East,90,5.8,5.8,87,0.00,,---,0.00,VWS V14.01,2013-09-05 13:41:00,
2013-09-05 09:46:00,81.0,76.4,30.15,SSW,202,0.9,1.3,86,0.00,,---,0.00,VWS V14.01,2013-09-05 13:46:00,
2013-09-05 09:51:00,81.5,76.9,30.15,ENE,68,3.8,6.0,86,0.00,,---,0.00,VWS V14.01,2013-09-05 13:51:00,
2013-09-05 09:56:00,82.0,77.1,30.15,WNW,292,2.2,3.6,85,0.00,,---,0.00,VWS V14.01,2013-09-05 13:56:00,
2013-09-05 10:03:00,82.9,77.6,30.18,SSE,158,0.9,0.9,84,0.00,,---,0.00,VWS V14.01,2013-09-05 14:03:00,
2013-09-05 10:08:00,83.5,77.8,30.18,East,90,3.6,3.8,83,0.00,,---,0.00,VWS V14.01,2013-09-05 14:08:00,
2013-09-05 10:13:00,83.8,77.4,30.18,NNE,22,2.0,2.5,81,0.00,,---,0.00,VWS V14.01,2013-09-05 14:13:00,
2013-09-05 10:18:00,84.2,77.0,30.18,East,90,2.5,3.1,79,0.00,,---,0.00,VWS V14.01,2013-09-05 14:18:00,
2013-09-05 10:23:00,84.6,76.9,30.18,NNE,22,2.9,2.9,78,0.00,,---,0.00,VWS V14.01,2013-09-05 14:23:00,
2013-09-05 10:28:00,85.1,77.1,30.18,ENE,68,4.7,5.8,77,0.00,,---,0.00,VWS V14.01,2013-09-05 14:28:00,
2013-09-05 10:34:00,85.5,76.6,30.18,ESE,112,4.9,4.9,75,0.00,,---,0.00,VWS V14.01,2013-09-05 14:34:00,
2013-09-05 10:39:00,86.0,76.8,30.18,NE,45,1.1,4.3,74,0.00,,---,0.00,VWS V14.01,2013-09-05 14:39:00,
2013-09-05 10:44:00,86.4,76.3,30.18,East,90,2.0,2.0,72,0.00,,---,0.00,VWS V14.01,2013-09-05 14:44:00,
2013-09-05 10:49:00,86.7,76.2,30.18,SE,135,4.0,4.0,71,0.00,,---,0.00,VWS V14.01,2013-09-05 14:49:00,
2013-09-05 10:54:00,87.1,76.5,30.18,East,90,7.6,7.6,71,0.00,,---,0.00,VWS V14.01,2013-09-05 14:54:00,
2013-09-05 10:59:00,87.3,75.4,30.18,ENE,68,3.6,4.9,68,0.00,,---,0.00,VWS V14.01,2013-09-05 14:59:00,
2013-09-05 11:05:00,87.4,74.7,30.18,East,90,4.3,4.9,66,0.00,,---,0.00,VWS V14.01,2013-09-05 15:05:00,
2013-09-05 11:11:00,87.8,75.0,30.18,South,180,2.0,4.3,66,0.00,,---,0.00,VWS V14.01,2013-09-05 15:11:00,
2013-09-05 11:16:00,88.2,74.9,30.18,SSE,158,2.5,2.7,65,0.00,,---,0.00,VWS V14.01,2013-09-05 15:16:00,
2013-09-05 11:21:00,88.2,73.5,30.18,East,90,4.9,4.9,62,0.00,,---,0.00,VWS V14.01,2013-09-05 15:21:00,
2013-09-05 11:27:00,88.7,74.5,30.18,East,90,3.6,5.4,63,0.00,,---,0.00,VWS V14.01,2013-09-05 15:27:00,
2013-09-05 11:33:00,89.1,73.9,30.18,ENE,68,4.9,4.9,61,0.00,,---,0.00,VWS V14.01,2013-09-05 15:33:00,
2013-09-05 11:38:00,89.2,73.1,30.18,South,180,5.6,6.3,59,0.00,,---,0.00,VWS V14.01,2013-09-05 15:38:00,
2013-09-05 11:43:00,89.2,72.5,30.18,NE,45,7.6,7.6,58,0.00,,---,0.00,VWS V14.01,2013-09-05 15:43:00,
2013-09-05 11:50:00,89.8,73.0,30.18,East,90,2.5,2.5,58,0.00,,---,0.00,VWS V14.01,2013-09-05 15:50:00,
2013-09-05 11:56:00,89.8,72.0,30.18,SSW,202,1.3,4.7,56,0.00,,---,0.00,VWS V14.01,2013-09-05 15:56:00,
2013-09-05 12:01:00,89.6,71.8,30.18,NNE,22,3.6,4.9,56,0.00,,---,0.00,VWS V14.01,2013-09-05 16:01:00,
2013-09-05 12:06:00,89.8,72.0,30.18,ESE,112,4.9,4.9,56,0.00,,---,0.00,VWS V14.01,2013-09-05 16:06:00,
2013-09-05 12:11:00,89.8,71.5,30.18,East,90,3.8,4.7,55,0.00,,---,0.00,VWS V14.01,2013-09-05 16:11:00,
2013-09-05 12:16:00,89.6,70.8,30.18,SSW,202,3.1,4.7,54,0.00,,---,0.00,VWS V14.01,2013-09-05 16:16:00,
2013-09-05 12:22:00,89.8,70.4,30.18,SSW,202,2.0,2.9,53,0.00,,---,0.00,VWS V14.01,2013-09-05 16:22:00,
2013-09-05 12:27:00,90.3,71.4,30.18,ESE,112,2.7,4.0,54,0.00,,---,0.00,VWS V14.01,2013-09-05 16:27:00,
2013-09-05 12:32:00,90.3,70.3,30.15,ENE,68,3.1,3.1,52,0.00,,---,0.00,VWS V14.01,2013-09-05 16:32:00,
2013-09-05 12:37:00,90.3,69.8,30.15,East,90,1.6,2.5,51,0.00,,---,0.00,VWS V14.01,2013-09-05 16:37:00,
2013-09-05 12:42:00,90.5,69.3,30.15,East,90,1.3,1.3,50,0.00,,---,0.00,VWS V14.01,2013-09-05 16:42:00,
2013-09-05 12:49:00,90.9,68.5,30.15,ENE,68,2.9,2.9,48,0.00,,---,0.00,VWS V14.01,2013-09-05 16:49:00,
2013-09-05 12:55:00,90.7,67.7,30.15,ESE,112,4.3,4.5,47,0.00,,---,0.00,VWS V14.01,2013-09-05 16:55:00,
2013-09-05 13:00:00,90.5,67.5,30.15,ENE,68,0.0,3.8,47,0.00,,---,0.00,VWS V14.01,2013-09-05 17:00:00,
2013-09-05 13:05:00,90.9,68.5,30.15,SSE,158,2.2,2.2,48,0.00,,---,0.00,VWS V14.01,2013-09-05 17:05:00,
2013-09-05 13:10:00,91.4,68.3,30.15,ESE,112,1.6,1.6,47,0.00,,---,0.00,VWS V14.01,2013-09-05 17:10:00,
2013-09-05 13:15:00,91.9,68.2,30.15,SSE,158,3.1,5.4,46,0.00,,---,0.00,VWS V14.01,2013-09-05 17:15:00,
2013-09-05 13:20:00,92.3,68.5,30.15,ENE,68,2.0,2.0,46,0.00,,---,0.00,VWS V14.01,2013-09-05 17:20:00,
2013-09-05 13:25:00,92.7,67.6,30.15,NNW,338,0.0,3.8,44,0.00,,---,0.00,VWS V14.01,2013-09-05 17:25:00,
2013-09-05 13:30:00,92.8,67.7,30.15,NE,45,5.8,10.7,44,0.00,,---,0.00,VWS V14.01,2013-09-05 17:30:00,
2013-09-05 13:35:00,92.8,66.4,30.15,East,90,2.2,3.1,42,0.00,,---,0.00,VWS V14.01,2013-09-05 17:35:00,
2013-09-05 13:40:00,92.8,67.1,30.15,ESE,112,1.1,2.5,43,0.00,,---,0.00,VWS V14.01,2013-09-05 17:40:00,
2013-09-05 13:45:00,92.8,66.4,30.15,ESE,112,2.5,2.5,42,0.00,,---,0.00,VWS V14.01,2013-09-05 17:45:00,
2013-09-05 13:50:00,93.2,66.7,30.12,SE,135,1.1,1.1,42,0.00,,---,0.00,VWS V14.01,2013-09-05 17:50:00,
2013-09-05 13:55:00,93.6,66.3,30.12,SSW,202,2.7,2.7,41,0.00,,---,0.00,VWS V14.01,2013-09-05 17:55:00,
2013-09-05 14:00:00,93.9,66.7,30.12,ESE,112,5.8,5.8,41,0.00,,---,0.00,VWS V14.01,2013-09-05 18:00:00,
2013-09-05 14:05:00,94.3,67.0,30.12,ESE,112,1.3,1.3,41,0.00,,---,0.00,VWS V14.01,2013-09-05 18:05:00,
2013-09-05 14:10:00,94.5,67.1,30.12,East,90,4.3,4.3,41,0.00,,---,0.00,VWS V14.01,2013-09-05 18:10:00,
2013-09-05 14:15:00,94.6,66.6,30.12,East,90,2.0,2.7,40,0.00,,---,0.00,VWS V14.01,2013-09-05 18:15:00,
2013-09-05 14:20:00,95.0,66.2,30.12,NNE,22,2.7,6.5,39,0.00,,---,0.00,VWS V14.01,2013-09-05 18:20:00,
2013-09-05 14:25:00,95.4,65.8,30.12,ENE,68,2.7,2.7,38,0.00,,---,0.00,VWS V14.01,2013-09-05 18:25:00,
2013-09-05 14:31:00,95.7,66.1,30.12,North,0,4.0,4.0,38,0.00,,---,0.00,VWS V14.01,2013-09-05 18:31:00,
2013-09-05 14:36:00,95.9,66.2,30.12,NNW,338,4.0,5.6,38,0.00,,---,0.00,VWS V14.01,2013-09-05 18:36:00,
2013-09-05 14:41:00,96.4,66.7,30.12,SSW,202,1.6,1.6,38,0.00,,---,0.00,VWS V14.01,2013-09-05 18:41:00,
2013-09-05 14:48:00,96.8,66.2,30.12,ENE,68,1.6,1.6,37,0.00,,---,0.00,VWS V14.01,2013-09-05 18:48:00,
2013-09-05 14:53:00,96.8,65.5,30.12,East,90,3.6,3.6,36,0.00,,---,0.00,VWS V14.01,2013-09-05 18:53:00,
2013-09-05 14:58:00,96.8,64.7,30.12,East,90,3.4,9.6,35,0.00,,---,0.00,VWS V14.01,2013-09-05 18:58:00,
2013-09-05 15:03:00,97.2,64.1,30.12,NNE,22,2.0,2.0,34,0.00,,---,0.00,VWS V14.01,2013-09-05 19:03:00,
2013-09-05 15:08:00,97.2,64.1,30.12,ESE,112,4.7,4.7,34,0.00,,---,0.00,VWS V14.01,2013-09-05 19:08:00,
2013-09-05 15:14:00,96.8,63.0,30.12,NNE,22,2.0,2.0,33,0.00,,---,0.00,VWS V14.01,2013-09-05 19:14:00,
2013-09-05 15:20:00,96.8,63.8,30.09,East,90,2.5,2.5,34,0.00,,---,0.00,VWS V14.01,2013-09-05 19:20:00,
2013-09-05 15:25:00,96.1,62.3,30.09,North,0,2.5,2.5,33,0.00,,---,0.00,VWS V14.01,2013-09-05 19:25:00,
2013-09-05 15:30:00,95.5,61.9,30.09,NNW,338,1.3,2.7,33,0.00,,---,0.00,VWS V14.01,2013-09-05 19:30:00,
2013-09-05 15:35:00,95.2,61.6,30.12,ESE,112,3.4,3.4,33,0.00,,---,0.00,VWS V14.01,2013-09-05 19:35:00,
2013-09-05 15:40:00,95.0,63.9,30.12,West,270,2.5,2.5,36,0.00,,---,0.00,VWS V14.01,2013-09-05 19:40:00,
2013-09-05 15:45:00,95.0,65.4,30.12,West,270,2.5,2.5,38,0.00,,---,0.00,VWS V14.01,2013-09-05 19:45:00,
2013-09-05 15:50:00,94.3,65.5,30.09,South,180,3.4,3.4,39,0.00,,---,0.00,VWS V14.01,2013-09-05 19:50:00,
2013-09-05 15:55:00,93.6,65.6,30.09,NNW,338,2.7,3.4,40,0.00,,---,0.00,VWS V14.01,2013-09-05 19:55:00,
2013-09-05 16:00:00,93.4,66.2,30.09,WNW,292,3.1,3.4,41,0.00,,---,0.00,VWS V14.01,2013-09-05 20:00:00,
2013-09-05 16:05:00,93.6,67.0,30.09,West,270,2.5,3.6,42,0.00,,---,0.00,VWS V14.01,2013-09-05 20:05:00,
2013-09-05 16:10:00,93.4,67.6,30.09,West,270,6.0,6.0,43,0.00,,---,0.00,VWS V14.01,2013-09-05 20:10:00,
2013-09-05 16:17:00,93.0,67.2,30.09,SSE,158,1.6,1.6,43,0.00,,---,0.00,VWS V14.01,2013-09-05 20:17:00,
2013-09-05 16:25:00,92.5,66.8,30.09,WSW,248,3.4,3.4,43,0.00,,---,0.00,VWS V14.01,2013-09-05 20:25:00,
2013-09-05 16:30:00,92.5,67.4,30.09,South,180,4.0,4.0,44,0.00,,---,0.00,VWS V14.01,2013-09-05 20:30:00,
2013-09-05 16:35:00,92.7,67.6,30.09,NW,315,5.6,5.6,44,0.00,,---,0.00,VWS V14.01,2013-09-05 20:35:00,
2013-09-05 16:40:00,92.8,67.7,30.09,WSW,248,5.6,5.6,44,0.00,,---,0.00,VWS V14.01,2013-09-05 20:40:00,
2013-09-05 16:45:00,92.8,67.7,30.09,WSW,248,8.1,8.1,44,0.00,,---,0.00,VWS V14.01,2013-09-05 20:45:00,
2013-09-05 16:50:00,92.5,67.4,30.09,WSW,248,4.0,4.0,44,0.00,,---,0.00,VWS V14.01,2013-09-05 20:50:00,
2013-09-05 16:55:00,92.5,68.1,30.09,SSE,158,2.5,2.7,45,0.00,,---,0.00,VWS V14.01,2013-09-05 20:55:00,
2013-09-05 17:00:00,92.5,68.1,30.09,SSW,202,2.5,3.8,45,0.00,,---,0.00,VWS V14.01,2013-09-05 21:00:00,
2013-09-05 17:05:00,91.0,61.9,30.12,SE,135,8.5,10.1,38,0.00,,---,0.00,VWS V14.01,2013-09-05 21:05:00,
2013-09-05 17:10:00,88.7,60.6,30.12,NNE,22,3.1,3.1,39,0.00,,---,0.00,VWS V14.01,2013-09-05 21:10:00,
2013-09-05 17:15:00,86.9,60.4,30.12,East,90,5.4,5.4,41,0.00,,---,0.00,VWS V14.01,2013-09-05 21:15:00,
2013-09-05 17:20:00,84.0,60.4,30.15,SSE,158,2.5,6.3,45,0.12,,---,0.12,VWS V14.01,2013-09-05 21:20:00,
2013-09-05 17:27:00,81.5,59.9,30.15,East,90,5.8,6.9,48,0.16,,---,0.16,VWS V14.01,2013-09-05 21:27:00,
2013-09-05 17:32:00,80.2,59.4,30.12,East,90,5.8,5.8,49,0.21,,---,0.21,VWS V14.01,2013-09-05 21:32:00,
2013-09-05 17:37:00,79.5,60.4,30.12,East,90,5.8,5.8,52,0.21,,---,0.21,VWS V14.01,2013-09-05 21:37:00,
2013-09-05 17:43:00,78.3,61.8,30.12,East,90,5.8,5.8,57,0.25,,---,0.25,VWS V14.01,2013-09-05 21:43:00,
2013-09-05 17:51:00,77.7,62.3,30.09,East,90,5.8,5.8,59,0.25,,---,0.25,VWS V14.01,2013-09-05 21:51:00,
2013-09-05 17:56:00,77.2,61.8,30.09,SSW,202,4.3,4.3,59,0.25,,---,0.25,VWS V14.01,2013-09-05 21:56:00,
2013-09-05 18:01:00,76.8,61.9,30.09,SSW,202,4.7,4.7,60,0.25,,---,0.25,VWS V14.01,2013-09-05 22:01:00,
2013-09-05 18:06:00,76.6,63.1,30.09,SSW,202,3.4,3.4,63,0.25,,---,0.25,VWS V14.01,2013-09-05 22:06:00,
2013-09-05 18:11:00,76.8,64.6,30.09,SSW,202,2.2,2.2,66,0.25,,---,0.25,VWS V14.01,2013-09-05 22:11:00,
2013-09-05 18:16:00,76.6,64.9,30.09,SSW,202,2.2,2.2,67,0.25,,---,0.25,VWS V14.01,2013-09-05 22:16:00,
2013-09-05 18:21:00,76.6,65.3,30.12,WSW,248,0.0,0.0,68,0.13,,---,0.25,VWS V14.01,2013-09-05 22:21:00,
2013-09-05 18:26:00,76.6,65.7,30.12,WSW,248,0.0,0.0,69,0.13,,---,0.29,VWS V14.01,2013-09-05 22:26:00,
2013-09-05 18:31:00,76.6,66.1,30.12,WSW,248,0.0,0.0,70,0.08,,---,0.29,VWS V14.01,2013-09-05 22:31:00,
2013-09-05 18:36:00,76.6,66.5,30.12,WSW,248,0.0,0.0,71,0.08,,---,0.29,VWS V14.01,2013-09-05 22:36:00,
2013-09-05 18:41:00,76.8,67.5,30.12,NE,45,2.7,4.0,73,0.08,,---,0.29,VWS V14.01,2013-09-05 22:41:00,
2013-09-05 18:46:00,77.0,68.1,30.12,NNE,22,2.0,2.5,74,0.04,,---,0.29,VWS V14.01,2013-09-05 22:46:00,
2013-09-05 18:51:00,77.0,68.1,30.09,NW,315,0.0,2.0,74,0.04,,---,0.29,VWS V14.01,2013-09-05 22:51:00,
2013-09-05 18:56:00,77.2,68.7,30.09,NW,315,1.6,1.6,75,0.04,,---,0.29,VWS V14.01,2013-09-05 22:56:00,
2013-09-05 19:01:00,77.2,68.7,30.09,NW,315,1.6,1.6,75,0.04,,---,0.29,VWS V14.01,2013-09-05 23:01:00,
2013-09-05 19:06:00,77.2,68.7,30.12,NW,315,2.5,2.5,75,0.04,,---,0.29,VWS V14.01,2013-09-05 23:06:00,
2013-09-05 19:11:00,77.2,69.0,30.12,NW,315,0.0,0.0,76,0.04,,---,0.29,VWS V14.01,2013-09-05 23:11:00,
2013-09-05 19:16:00,77.4,69.2,30.12,NW,315,0.0,0.0,76,0.04,,---,0.29,VWS V14.01,2013-09-05 23:16:00,
2013-09-05 19:21:00,77.4,69.6,30.09,NW,315,0.0,0.0,77,0.04,,---,0.29,VWS V14.01,2013-09-05 23:21:00,
2013-09-05 19:27:00,77.4,69.6,30.09,NW,315,0.0,0.0,77,0.00,,---,0.29,VWS V14.01,2013-09-05 23:27:00,
2013-09-05 19:32:00,77.4,70.0,30.09,NW,315,1.1,1.1,78,0.00,,---,0.29,VWS V14.01,2013-09-05 23:32:00,
2013-09-05 19:37:00,77.4,70.0,30.09,North,0,0.0,1.1,78,0.00,,---,0.29,VWS V14.01,2013-09-05 23:37:00,
2013-09-05 19:42:00,77.4,70.0,30.09,WSW,248,1.1,1.1,78,0.00,,---,0.29,VWS V14.01,2013-09-05 23:42:00,
2013-09-05 19:47:00,77.4,70.0,30.09,NW,315,0.0,0.0,78,0.00,,---,0.29,VWS V14.01,2013-09-05 23:47:00,
2013-09-05 19:52:00,77.4,70.0,30.09,ENE,68,0.0,0.9,78,0.00,,---,0.29,VWS V14.01,2013-09-05 23:52:00,
2013-09-05 19:57:00,77.4,70.3,30.09,NNE,22,0.0,0.0,79,0.00,,---,0.29,VWS V14.01,2013-09-05 23:57:00,
2013-09-05 20:02:00,77.4,70.3,30.12,ENE,68,0.0,0.0,79,0.00,,---,0.29,VWS V14.01,2013-09-06 00:02:00,
2013-09-05 20:08:00,77.4,70.3,30.12,North,0,0.0,0.0,79,0.00,,---,0.29,VWS V14.01,2013-09-06 00:08:00,
2013-09-05 20:13:00,77.4,70.3,30.12,East,90,0.0,0.0,79,0.00,,---,0.29,VWS V14.01,2013-09-06 00:13:00,
2013-09-05 20:18:00,77.4,70.3,30.09,ENE,68,0.0,0.0,79,0.00,,---,0.29,VWS V14.01,2013-09-06 00:18:00,
2013-09-05 20:23:00,77.4,70.3,30.09,ENE,68,0.0,0.0,79,0.00,,---,0.29,VWS V14.01,2013-09-06 00:23:00,
2013-09-05 20:28:00,77.4,70.7,30.09,SSW,202,0.0,0.0,80,0.00,,---,0.29,VWS V14.01,2013-09-06 00:28:00,
2013-09-05 20:33:00,77.2,70.5,30.12,SSE,158,0.0,0.0,80,0.00,,---,0.29,VWS V14.01,2013-09-06 00:33:00,
2013-09-05 20:38:00,77.2,70.5,30.12,SSE,158,0.0,0.0,80,0.00,,---,0.29,VWS V14.01,2013-09-06 00:38:00,
2013-09-05 20:45:00,77.2,70.5,30.12,SE,135,0.0,0.0,80,0.00,,---,0.29,VWS V14.01,2013-09-06 00:45:00,
2013-09-05 20:51:00,77.2,70.5,30.12,SW,225,0.9,0.9,80,0.00,,---,0.29,VWS V14.01,2013-09-06 00:51:00,
2013-09-05 20:56:00,77.0,70.4,30.12,WNW,292,0.0,0.0,80,0.00,,---,0.29,VWS V14.01,2013-09-06 00:56:00,
2013-09-05 21:02:00,77.0,70.7,30.12,SW,225,0.0,0.0,81,0.00,,---,0.29,VWS V14.01,2013-09-06 01:02:00,
2013-09-05 21:09:00,77.0,71.1,30.12,NW,315,0.0,0.0,82,0.00,,---,0.29,VWS V14.01,2013-09-06 01:09:00,
2013-09-05 21:15:00,77.0,71.1,30.12,NW,315,0.0,0.0,82,0.00,,---,0.29,VWS V14.01,2013-09-06 01:15:00,
2013-09-05 21:20:00,77.0,71.1,30.12,NW,315,0.0,0.0,82,0.00,,---,0.29,VWS V14.01,2013-09-06 01:20:00,
2013-09-05 21:25:00,77.0,71.1,30.12,NW,315,0.0,0.0,82,0.00,,---,0.29,VWS V14.01,2013-09-06 01:25:00,
2013-09-05 21:30:00,77.0,71.1,30.12,NW,315,0.0,0.0,82,0.00,,---,0.29,VWS V14.01,2013-09-06 01:30:00,
2013-09-05 21:35:00,77.0,71.4,30.12,NW,315,0.0,0.0,83,0.00,,---,0.29,VWS V14.01,2013-09-06 01:35:00,
2013-09-05 21:40:00,77.0,71.4,30.12,NW,315,0.0,0.0,83,0.00,,---,0.29,VWS V14.01,2013-09-06 01:40:00,
2013-09-05 21:45:00,77.0,71.4,30.12,ESE,112,0.0,0.0,83,0.00,,---,0.29,VWS V14.01,2013-09-06 01:45:00,
2013-09-05 21:50:00,77.0,71.4,30.12,SE,135,0.0,0.0,83,0.00,,---,0.29,VWS V14.01,2013-09-06 01:50:00,
2013-09-05 21:55:00,77.0,71.4,30.12,East,90,0.0,0.0,83,0.00,,---,0.29,VWS V14.01,2013-09-06 01:55:00,
2013-09-05 22:00:00,77.0,71.4,30.12,East,90,0.0,0.0,83,0.00,,---,0.29,VWS V14.01,2013-09-06 02:00:00,
2013-09-05 22:05:00,77.0,71.4,30.12,ENE,68,0.0,0.0,83,0.00,,---,0.29,VWS V14.01,2013-09-06 02:05:00,
2013-09-05 22:10:00,77.0,71.4,30.12,ENE,68,0.0,0.0,83,0.00,,---,0.29,VWS V14.01,2013-09-06 02:10:00,
2013-09-05 22:16:00,76.8,71.6,30.12,East,90,0.0,0.0,84,0.00,,---,0.29,VWS V14.01,2013-09-06 02:16:00,
2013-09-05 22:21:00,76.8,71.6,30.12,NE,45,0.0,0.0,84,0.00,,---,0.29,VWS V14.01,2013-09-06 02:21:00,
2013-09-05 22:26:00,76.8,71.3,30.12,ESE,112,0.0,0.0,83,0.00,,---,0.29,VWS V14.01,2013-09-06 02:26:00,
2013-09-05 22:31:00,76.8,71.3,30.12,ESE,112,0.0,0.0,83,0.00,,---,0.29,VWS V14.01,2013-09-06 02:31:00,
2013-09-05 22:36:00,76.8,71.3,30.15,NNW,338,0.0,0.0,83,0.00,,---,0.29,VWS V14.01,2013-09-06 02:36:00,
2013-09-05 22:41:00,76.8,71.3,30.15,ESE,112,0.0,0.0,83,0.00,,---,0.29,VWS V14.01,2013-09-06 02:41:00,
2013-09-05 22:46:00,76.8,71.3,30.15,East,90,0.0,0.0,83,0.00,,---,0.29,VWS V14.01,2013-09-06 02:46:00,
2013-09-05 22:51:00,76.8,71.3,30.12,East,90,0.0,0.0,83,0.00,,---,0.29,VWS V14.01,2013-09-06 02:51:00,
2013-09-05 22:56:00,76.6,71.1,30.12,SE,135,0.0,0.0,83,0.00,,---,0.29,VWS V14.01,2013-09-06 02:56:00,
2013-09-05 23:01:00,76.6,71.1,30.12,SE,135,1.1,1.1,83,0.00,,---,0.29,VWS V14.01,2013-09-06 03:01:00,
2013-09-05 23:07:00,76.6,71.1,30.12,SE,135,0.0,0.0,83,0.00,,---,0.29,VWS V14.01,2013-09-06 03:07:00,
2013-09-05 23:12:00,76.5,70.9,30.12,ESE,112,0.0,0.0,83,0.00,,---,0.29,VWS V14.01,2013-09-06 03:12:00,
2013-09-05 23:17:00,76.5,71.3,30.15,ESE,112,0.0,0.0,84,0.00,,---,0.29,VWS V14.01,2013-09-06 03:17:00,
2013-09-05 23:22:00,76.5,71.3,30.15,NNW,338,1.3,1.3,84,0.00,,---,0.29,VWS V14.01,2013-09-06 03:22:00,
2013-09-05 23:27:00,76.5,71.3,30.15,SSE,158,0.0,0.0,84,0.00,,---,0.29,VWS V14.01,2013-09-06 03:27:00,
2013-09-05 23:32:00,76.5,71.3,30.15,SSE,158,0.0,0.0,84,0.00,,---,0.29,VWS V14.01,2013-09-06 03:32:00,
2013-09-05 23:37:00,76.5,71.3,30.15,SSE,158,0.0,0.0,84,0.00,,---,0.29,VWS V14.01,2013-09-06 03:37:00,
2013-09-05 23:42:00,76.5,71.6,30.15,NW,315,0.0,0.0,85,0.00,,---,0.29,VWS V14.01,2013-09-06 03:42:00,
2013-09-05 23:48:00,76.5,71.6,30.12,NW,315,0.0,0.0,85,0.00,,---,0.29,VWS V14.01,2013-09-06 03:48:00,
2013-09-05 23:53:00,76.5,71.6,30.12,NW,315,0.0,0.0,85,0.00,,---,0.29,VWS V14.01,2013-09-06 03:53:00,
2013-09-05 23:59:00,76.5,71.6,30.12,NW,315,0.0,0.0,85,0.00,,---,0.29,VWS V14.01,2013-09-06 03:59:00,